EA3ANS-1 Weather Reports


Display with metric or nautical units.
time (UTC)temp
F
wind
direction
speed
MPH
gust
MPH
rain 1hr
in
rain 24hr
in
rain mn
in
humidity
%
barometer
mb
20260906125059 97 107 6.0 8.0 0.00 0.00 0.00 1018.4
20260906124102 98 160 7.0 8.0 0.00 0.00 0.00 1018.5
20260906123056 97 165 7.0 9.0 0.00 0.00 0.00 1018.6
20260906122059 97 131 6.0 6.0 0.00 0.00 0.00 1018.7
20260906121054 98 107 6.0 8.0 0.00 0.00 0.00 1018.5
20260906120054 97 114 7.0 6.0 0.00 0.00 0.00 1018.8
20260906115056 97 195 6.0 5.0 0.00 0.00 0.00 1018.8
20260906114059 97 138 5.0 6.0 0.00 0.00 0.00 1018.7
20260906113100 97 177 5.0 8.0 0.00 0.00 0.00 1018.8
20260906112055 96 146 5.0 8.0 0.00 0.00 0.00 1018.8
20260906111057 96 174 5.0 6.0 0.00 0.00 0.00 1018.9
20260906110057 95 222 4.0 4.0 0.00 0.00 0.00 1018.9
20260906105059 95 122 0.0 7.0 0.00 0.00 0.00 1018.8
20260906104101 95 135 6.0 7.0 0.00 0.00 0.00 1018.8
20260906103059 94 156 6.0 3.0 0.00 0.00 0.00 1019.0
20260906102101 94 148 4.0 4.0 0.00 0.00 0.00 1019.0
20260906101058 92 104 2.0 2.0 0.00 0.00 0.00 1019.1
20260906100055 91 200 2.0 6.0 0.00 0.00 0.00 1019.2
20260906095058 90 190 3.0 2.0 0.00 0.00 0.00 1019.4
20260906094059 88 156 2.0 0.0 0.00 0.00 0.00 1019.4
20260906093057 88 235 2.0 2.0 0.00 0.00 0.00 1019.5
20260906092100 88 190 3.0 3.0 0.00 0.00 0.00 1019.5
20260906091056 86 217 0.0 0.0 0.00 0.00 0.00 1019.5
20260906090051 85 263 0.0 0.0 0.00 0.00 0.00 1019.6
20260906085053 83 10 4.0 5.0 0.00 0.00 0.00 1019.7
20260906084056 82 300 3.0 2.0 0.00 0.00 0.00 1019.6
20260906083049 81 309 5.0 8.0 0.00 0.00 0.00 1019.5
20260906082052 80 318 5.0 5.0 0.00 0.00 0.00 1019.6
20260906081055 79 17 7.0 6.0 0.00 0.00 0.00 1019.6
20260906080057 78 328 4.0 9.0 0.00 0.00 0.00 1019.6
20260906075053 77 329 6.0 3.0 0.00 0.00 0.00 1019.6
20260906074056 77 359 5.0 8.0 0.00 0.00 0.00 1019.7
20260906073059 76 309 6.0 4.0 0.00 0.00 0.00 1019.7
20260906072101 75 0 4.0 4.0 0.00 0.00 0.00 1019.6
20260906071104 74 332 7.0 11.0 0.00 0.00 0.00 1019.7
20260906070106 74 305 6.0 2.0 0.00 0.00 0.00 1019.6
20260906065109 74 263 8.0 6.0 0.00 0.00 0.00 1019.5
20260906064105 74 267 7.0 10.0 0.00 0.00 0.00 1019.5
20260906063108 73 311 8.0 7.0 0.00 0.00 0.00 1019.4
20260906062110 73 311 5.0 3.0 0.00 0.00 0.00 1019.3
20260906061113 73 342 6.0 4.0 0.00 0.00 0.00 1019.2
20260906060116 73 316 6.0 6.0 0.00 0.00 0.00 1019.1
20260906055118 73 1 6.0 5.0 0.00 0.00 0.00 1019.0
20260906054121 74 316 7.0 9.0 0.00 0.00 0.00 1018.9
20260906053115 73 312 8.0 12.0 0.00 0.00 0.00 1018.8
20260906052118 73 276 8.0 11.0 0.00 0.00 0.00 1018.8
20260906051120 73 297 6.0 5.0 0.00 0.00 0.00 1018.9
20260906050122 73 330 7.0 6.0 0.00 0.00 0.00 1019.0
20260906045124 73 328 5.0 6.0 0.00 0.00 0.00 1019.0
20260906044127 72 314 7.0 9.0 0.00 0.00 0.00 1018.9
20260906043130 73 290 8.0 8.0 0.00 0.00 0.00 1019.0
20260906042125 73 304 5.0 10.0 0.00 0.00 0.00 1019.0
20260906041127 73 350 8.0 4.0 0.00 0.00 0.00 1019.0
20260906040130 73 302 7.0 5.0 0.00 0.00 0.00 1019.1
20260906035132 74 301 6.0 6.0 0.00 0.00 0.00 1019.1
20260906034134 74 328 6.0 3.0 0.00 0.00 0.00 1019.2
20260906033136 74 267 1.0 2.0 0.00 0.00 0.00 1019.2
20260906032138 74 329 5.0 7.0 0.00 0.00 0.00 1019.2
20260906031134 74 305 6.0 8.0 0.00 0.00 0.00 1019.1
20260906030136 74 302 6.0 8.0 0.00 0.00 0.00 1019.1
20260906025139 75 273 4.0 3.0 0.00 0.00 0.00 1019.1
20260906024141 76 280 2.0 3.0 0.00 0.00 0.00 1019.1
20260906023144 76 232 2.0 1.0 0.00 0.00 0.00 1019.1
20260906022144 76 76 2.0 1.0 0.00 0.00 0.00 1019.1
20260906021142 76 200 2.0 1.0 0.00 0.00 0.00 1019.2
20260906020401 75 278 4.0 5.0 0.00 0.00 0.00 1019.2
20260906020136 75 278 4.0 5.0 0.00 0.00 0.00 1019.2
20260906015131 75 263 0.0 0.0 0.00 0.00 0.00 1019.3
20260906014128 75 76 0.0 0.0 0.00 0.00 0.00 1019.3
20260906013130 75 35 0.0 0.0 0.00 0.00 0.00 1019.3
20260906012133 76 245 2.0 1.0 0.00 0.00 0.00 1019.2
20260906011135 76 321 1.0 0.0 0.00 0.00 0.00 1019.3
20260906010138 76 347 6.0 6.0 0.00 0.00 0.00 1019.2
20260906005131 77 300 3.0 5.0 0.00 0.00 0.00 1019.3
20260906004134 77 316 5.0 4.0 0.00 0.00 0.00 1019.4
20260906003136 77 309 4.0 3.0 0.00 0.00 0.00 1019.4
20260906002139 77 280 5.0 4.0 0.00 0.00 0.00 1019.5
20260906001135 77 322 5.0 4.0 0.00 0.00 0.00 1019.5
20260906000136 77 323 7.0 6.0 0.00 0.00 0.00 1019.5
20260905235135 78 329 3.0 5.0 0.00 0.00 0.00 1019.6
20260905234128 78 305 0.0 2.0 0.00 0.00 0.00 1019.6
20260905233126 78 277 2.0 2.0 0.00 0.00 0.00 1019.6
20260905232128 78 10 4.0 4.0 0.00 0.00 0.00 1019.7
20260905231130 78 309 2.0 2.0 0.00 0.00 0.00 1019.8
20260905230130 78 173 0.0 0.0 0.00 0.00 0.00 1019.9
20260905225133 78 173 0.0 0.0 0.00 0.00 0.00 1019.9
20260905224135 78 184 0.0 0.0 0.00 0.00 0.00 1019.7
20260905223130 78 177 0.0 0.0 0.00 0.00 0.00 1019.7
20260905222131 78 177 0.0 0.0 0.00 0.00 0.00 1019.7
20260905221131 78 177 1.0 1.0 0.00 0.00 0.00 1019.8
20260905220126 79 179 0.0 3.0 0.00 0.00 0.00 1019.7
20260905215126 80 204 0.0 0.0 0.00 0.00 0.00 1019.5
20260905214128 80 252 0.0 2.0 0.00 0.00 0.00 1019.7
20260905213130 80 316 1.0 2.0 0.00 0.00 0.00 1019.7
20260905212123 80 191 0.0 0.0 0.00 0.00 0.00 1019.7
20260905211125 81 191 0.0 0.0 0.00 0.00 0.00 1019.8
20260905210128 81 191 0.0 0.0 0.00 0.00 0.00 1019.8
20260905205130 81 191 0.0 0.0 0.00 0.00 0.00 1019.7
20260905204133 82 191 0.0 0.0 0.00 0.00 0.00 1019.7
20260905203135 82 191 0.0 0.0 0.00 0.00 0.00 1019.7
20260905202131 82 198 2.0 3.0 0.00 0.00 0.00 1019.7
20260905201124 82 218 2.0 1.0 0.00 0.00 0.00 1019.7
20260905200127 83 204 4.0 3.0 0.00 0.00 0.00 1019.6
20260905195129 83 187 1.0 2.0 0.00 0.00 0.00 1019.5
20260905194132 83 214 2.0 1.0 0.00 0.00 0.00 1019.5
20260905193134 84 176 2.0 3.0 0.00 0.00 0.00 1019.5
20260905192137 85 160 1.0 2.0 0.00 0.00 0.00 1019.4
20260905191139 85 160 2.0 3.0 0.00 0.00 0.00 1019.4
20260905190135 86 150 2.0 2.0 0.00 0.00 0.00 1019.4
20260905185129 86 169 2.0 1.0 0.00 0.00 0.00 1019.4
20260905184128 86 146 1.0 3.0 0.00 0.00 0.00 1019.2
20260905183130 87 120 3.0 3.0 0.00 0.00 0.00 1019.1
20260905182133 88 101 4.0 1.0 0.00 0.00 0.00 1018.9
20260905181134 87 149 4.0 3.0 0.00 0.00 0.00 1018.8
20260905180137 88 173 5.0 6.0 0.00 0.00 0.00 1018.7
20260905175127 89 203 3.0 1.0 0.00 0.00 0.00 1018.6
20260905174130 89 200 4.0 0.0 0.00 0.00 0.00 1018.7
20260905173132 90 104 5.0 6.0 0.00 0.00 0.00 1018.7
20260905172135 90 145 6.0 6.0 0.00 0.00 0.00 1018.6
20260905171136 91 129 4.0 4.0 0.00 0.00 0.00 1018.5
20260905170133 91 131 6.0 3.0 0.00 0.00 0.00 1018.5
20260905165134 92 149 7.0 6.0 0.00 0.00 0.00 1018.6
20260905164129 92 163 8.0 3.0 0.00 0.00 0.00 1018.5
20260905163129 93 124 7.0 7.0 0.00 0.00 0.00 1018.6
20260905162132 93 158 7.0 8.0 0.00 0.00 0.00 1018.7
20260905161132 93 145 7.0 6.0 0.00 0.00 0.00 1018.8
20260905160134 93 120 7.0 4.0 0.00 0.00 0.00 1018.8
20260905155136 94 127 7.0 5.0 0.00 0.00 0.00 1018.8
20260905154138 93 153 9.0 7.0 0.00 0.00 0.00 1018.8
20260905153132 93 163 10.0 9.0 0.00 0.00 0.00 1018.8
20260905152134 95 120 8.0 5.0 0.00 0.00 0.00 1018.8
20260905151132 95 118 8.0 8.0 0.00 0.00 0.00 1018.8
20260905150131 95 159 8.0 10.0 0.00 0.00 0.00 1018.9
20260905145134 96 115 5.0 5.0 0.00 0.00 0.00 1018.9
20260905144131 95 153 8.0 6.0 0.00 0.00 0.00 1019.0
20260905143133 96 188 8.0 13.0 0.00 0.00 0.00 1019.0
20260905142127 96 124 11.0 14.0 0.00 0.00 0.00 1019.1
20260905141130 96 152 10.0 13.0 0.00 0.00 0.00 1019.2
20260905140133 96 155 8.0 7.0 0.00 0.00 0.00 1019.1
20260905135135 96 179 10.0 12.0 0.00 0.00 0.00 1019.2
20260905134136 96 155 10.0 11.0 0.00 0.00 0.00 1019.1
20260905133138 96 131 12.0 13.0 0.00 0.00 0.00 1019.1
20260905132141 97 165 10.0 13.0 0.00 0.00 0.00 1018.9
20260905131131 97 110 6.0 6.0 0.00 0.00 0.00 1019.0
20260905130134 97 135 10.0 10.0 0.00 0.00 0.00 1019.0